Location: Battersea Observatory
(44.4318°N, 76.3841°W)
Time: 21:14:12
(UTC-04:00)

Tiros 1 despin weight - Pass Details

Date: 24 January 2022
Orbit: 592 x 639 km, 48.2° (Epoch: 25 May)

Event Time Altitude Azimuth Distance (km) Brightness Sun altitude
Rises 20:56:08 0° 287° (WNW) 2,915 ? -41.2°
Enters shadow 20:58:15 - 290° (WNW) 2,099 ? -41.5°
Reaches altitude 10° 20:58:28 10° 291° (WNW) 2,014 - -41.6°
Maximum altitude 21:03:04 62° 12° (NNE) 716 - -42.4°
Drops below altitude 10° 21:07:43 10° 94° (E) 2,029 - -43.2°
Sets 21:10:05 0° 98° (E) 2,939 - -43.6°
